Time,TemperatureF,DewpointF,PressureIn,WindDirection,WindDirectionDegrees,WindSpeedMPH,WindSpeedGustMPH,Humidity,HourlyPrecipIn,Conditions,Clouds,dailyrainin,SoftwareType,DateUTC
2013-04-01 00:00:00,44.1,33.1,29.83,West,270,0.0,6.3,65,0.00,,OVC040,0.00,VWS V14.00,2013-04-01 04:00:00,
2013-04-01 00:08:00,44.1,33.4,29.80,South,172,4.9,7.2,66,0.00,,-RA,0.00,VWS V14.00,2013-04-01 04:08:00,
2013-04-01 00:10:00,44.1,33.4,29.80,SSW,210,4.9,7.2,66,0.00,,-RA,0.00,VWS V14.00,2013-04-01 04:10:00,
2013-04-01 00:16:00,44.2,33.6,29.80,SSW,212,4.0,6.3,66,0.00,,-RA,0.00,VWS V14.00,2013-04-01 04:16:00,
2013-04-01 00:23:00,44.2,34.7,29.80,SSW,205,5.8,6.3,69,0.00,,-RA,0.00,VWS V14.00,2013-04-01 04:23:00,
2013-04-01 00:27:00,44.1,34.9,29.80,SSW,196,3.6,8.1,70,0.00,,-RA,0.00,VWS V14.00,2013-04-01 04:27:00,
2013-04-01 00:34:00,44.1,36.0,29.80,SSW,204,6.3,6.7,73,0.04,,-RA,0.04,VWS V14.00,2013-04-01 04:34:00,
2013-04-01 00:40:00,44.1,36.7,29.80,WSW,252,3.1,9.6,75,0.04,,-RA,0.04,VWS V14.00,2013-04-01 04:40:00,
2013-04-01 00:46:00,44.1,37.0,29.80,WSW,245,5.4,6.3,76,0.04,,-RA,0.04,VWS V14.00,2013-04-01 04:46:00,
2013-04-01 00:53:00,44.1,37.7,29.77,SW,231,0.0,8.1,78,0.04,,-RA,0.04,VWS V14.00,2013-04-01 04:53:00,
2013-04-01 01:00:00,43.9,37.8,29.77,South,176,2.7,8.1,79,0.04,,-RA,0.04,VWS V14.00,2013-04-01 05:00:00,
2013-04-01 01:05:00,43.9,38.1,29.77,SE,130,2.2,5.8,80,0.04,,-RA,0.04,VWS V14.00,2013-04-01 05:05:00,
2013-04-01 01:12:00,43.7,38.0,29.77,SSW,196,0.0,5.4,80,0.04,,-RA,0.04,VWS V14.00,2013-04-01 05:12:00,
2013-04-01 01:19:00,43.7,38.3,29.74,SW,218,3.1,6.7,81,0.04,,-RA,0.04,VWS V14.00,2013-04-01 05:19:00,
2013-04-01 01:26:00,43.7,38.6,29.74,WSW,241,0.0,5.8,82,0.04,,-RA,0.04,VWS V14.00,2013-04-01 05:26:00,
2013-04-01 01:33:00,43.9,39.4,29.74,ENE,68,3.6,4.0,84,0.04,,-RA,0.04,VWS V14.00,2013-04-01 05:33:00,
2013-04-01 01:40:00,44.1,40.2,29.74,North,353,2.2,5.4,86,0.04,,-RA,0.04,VWS V14.00,2013-04-01 05:40:00,
2013-04-01 01:45:00,44.1,40.2,29.74,SSW,200,0.0,4.0,86,0.00,,-RA,0.04,VWS V14.00,2013-04-01 05:45:00,
2013-04-01 01:52:00,43.9,40.3,29.71,SSE,162,0.0,5.8,87,0.00,,-RA,0.04,VWS V14.00,2013-04-01 05:52:00,
2013-04-01 01:59:00,43.7,40.1,29.71,NW,322,3.1,5.8,87,0.00,,-RA,0.04,VWS V14.00,2013-04-01 05:59:00,
2013-04-01 02:06:00,43.9,40.8,29.71,South,172,3.6,7.6,89,0.04,,RA,0.08,VWS V14.00,2013-04-01 06:06:00,
2013-04-01 02:13:00,43.9,40.8,29.71,SW,219,0.0,5.8,89,0.04,,RA,0.08,VWS V14.00,2013-04-01 06:13:00,
2013-04-01 02:20:00,43.9,41.1,29.68,ESE,102,0.0,7.6,90,0.04,,RA,0.08,VWS V14.00,2013-04-01 06:20:00,
2013-04-01 02:25:00,43.9,41.4,29.68,SE,129,0.0,6.3,91,0.04,,RA,0.08,VWS V14.00,2013-04-01 06:25:00,
2013-04-01 02:34:00,43.9,41.4,29.65,SSW,195,2.2,5.4,91,0.08,,RA,0.12,VWS V14.00,2013-04-01 06:34:00,
2013-04-01 02:40:00,44.1,41.9,29.65,SSW,198,2.2,5.8,92,0.08,,RA,0.12,VWS V14.00,2013-04-01 06:40:00,
2013-04-01 02:46:00,44.1,41.9,29.65,WNW,291,0.0,5.4,92,0.08,,RA,0.12,VWS V14.00,2013-04-01 06:46:00,
2013-04-01 02:53:00,44.1,41.9,29.62,WSW,239,2.7,6.3,92,0.08,,-RA,0.12,VWS V14.00,2013-04-01 06:53:00,
2013-04-01 03:00:00,44.1,42.2,29.62,SE,135,2.2,7.6,93,0.08,,-RA,0.12,VWS V14.00,2013-04-01 07:00:00,
2013-04-01 03:05:00,44.1,42.2,29.62,WSW,241,3.6,6.7,93,0.08,,-RA,0.12,VWS V14.00,2013-04-01 07:05:00,
2013-04-01 03:12:00,44.2,42.3,29.62,WSW,250,0.0,4.9,93,0.04,,-RA,0.12,VWS V14.00,2013-04-01 07:12:00,
2013-04-01 03:19:00,44.2,42.6,29.62,WNW,291,2.7,8.1,94,0.04,,-RA,0.12,VWS V14.00,2013-04-01 07:19:00,
2013-04-01 03:26:00,44.2,42.6,29.62,South,191,2.7,5.8,94,0.04,,-RA,0.12,VWS V14.00,2013-04-01 07:26:00,
2013-04-01 03:33:00,44.2,42.6,29.62,SW,233,3.6,4.0,94,0.00,,-RA,0.12,VWS V14.00,2013-04-01 07:33:00,
2013-04-01 03:40:00,44.2,42.6,29.59,WSW,243,0.0,5.8,94,0.00,,-RA,0.12,VWS V14.00,2013-04-01 07:40:00,
2013-04-01 03:45:00,44.2,42.6,29.59,WSW,241,3.6,5.4,94,0.00,,-RA,0.12,VWS V14.00,2013-04-01 07:45:00,
2013-04-01 03:52:00,44.2,42.6,29.59,SW,217,6.3,6.7,94,0.00,,,0.12,VWS V14.00,2013-04-01 07:52:00,
2013-04-01 03:59:00,44.4,43.1,29.59,South,190,2.7,6.7,95,0.00,,,0.12,VWS V14.00,2013-04-01 07:59:00,
2013-04-01 04:06:00,44.6,43.3,29.59,SSW,213,4.9,5.4,95,0.00,,,0.12,VWS V14.00,2013-04-01 08:06:00,
2013-04-01 04:14:00,44.6,43.3,29.59,SSW,202,2.2,5.4,95,0.00,,,0.12,VWS V14.00,2013-04-01 08:14:00,
2013-04-01 04:20:00,44.6,43.3,29.59,SSW,197,0.0,5.8,95,0.00,,,0.12,VWS V14.00,2013-04-01 08:20:00,
2013-04-01 04:26:00,44.6,43.3,29.59,SW,224,3.6,5.8,95,0.00,,,0.12,VWS V14.00,2013-04-01 08:26:00,
2013-04-01 04:33:00,44.6,43.5,29.59,SW,233,3.6,6.3,96,0.00,,,0.12,VWS V14.00,2013-04-01 08:33:00,
2013-04-01 04:40:00,44.6,43.5,29.59,WSW,238,2.7,6.3,96,0.00,,,0.12,VWS V14.00,2013-04-01 08:40:00,
2013-04-01 04:47:00,44.6,43.5,29.59,WSW,241,3.1,4.0,96,0.00,,,0.12,VWS V14.00,2013-04-01 08:47:00,
2013-04-01 04:54:00,44.6,43.8,29.59,WSW,237,0.0,4.0,97,0.00,,,0.12,VWS V14.00,2013-04-01 08:54:00,
2013-04-01 05:00:00,44.6,43.8,29.59,West,260,4.0,4.0,97,0.00,,,0.12,VWS V14.00,2013-04-01 09:00:00,
2013-04-01 05:08:00,44.6,43.8,29.59,NW,322,0.0,4.0,97,0.00,,,0.12,VWS V14.00,2013-04-01 09:08:00,
2013-04-01 05:15:00,44.6,43.8,29.59,WSW,258,5.4,5.4,97,0.00,,,0.12,VWS V14.00,2013-04-01 09:15:00,
2013-04-01 05:22:00,44.6,44.1,29.59,WSW,248,3.1,6.3,98,0.00,,,0.12,VWS V14.00,2013-04-01 09:22:00,
2013-04-01 05:29:00,44.6,44.1,29.59,SW,225,0.0,6.3,98,0.00,,,0.12,VWS V14.00,2013-04-01 09:29:00,
2013-04-01 05:36:00,44.4,43.9,29.59,WSW,245,3.1,4.9,98,0.00,,,0.12,VWS V14.00,2013-04-01 09:36:00,
2013-04-01 05:44:00,44.2,43.7,29.59,WNW,302,2.7,4.9,98,0.00,,,0.12,VWS V14.00,2013-04-01 09:44:00,
2013-04-01 05:49:00,44.2,43.7,29.59,SSW,200,4.0,6.3,98,0.00,,,0.12,VWS V14.00,2013-04-01 09:49:00,
2013-04-01 05:56:00,44.2,43.7,29.59,WSW,245,3.1,7.6,98,0.00,,,0.12,VWS V14.00,2013-04-01 09:56:00,
2013-04-01 06:03:00,44.1,43.5,29.62,NW,309,0.0,4.9,98,0.00,,,0.12,VWS V14.00,2013-04-01 10:03:00,
2013-04-01 06:10:00,44.1,43.5,29.62,West,267,3.6,4.9,98,0.00,,,0.12,VWS V14.00,2013-04-01 10:10:00,
2013-04-01 06:17:00,43.7,43.2,29.62,WNW,290,4.9,9.6,98,0.00,,,0.12,VWS V14.00,2013-04-01 10:17:00,
2013-04-01 06:24:00,43.5,42.7,29.62,NW,313,5.8,11.0,97,0.00,,,0.12,VWS V14.00,2013-04-01 10:24:00,
2013-04-01 06:30:00,43.5,42.7,29.62,WNW,297,4.0,11.0,97,0.00,,,0.12,VWS V14.00,2013-04-01 10:30:00,
2013-04-01 06:36:00,43.5,43.0,29.62,WSW,238,3.1,8.3,98,0.00,,,0.12,VWS V14.00,2013-04-01 10:36:00,
2013-04-01 06:43:00,43.5,43.0,29.62,West,281,0.0,5.4,98,0.00,,,0.12,VWS V14.00,2013-04-01 10:43:00,
2013-04-01 06:50:00,43.7,43.2,29.62,WSW,243,3.6,6.3,98,0.00,,,0.12,VWS V14.00,2013-04-01 10:50:00,
2013-04-01 06:55:00,43.9,43.3,29.62,WSW,250,2.7,6.3,98,0.00,,,0.12,VWS V14.00,2013-04-01 10:55:00,
2013-04-01 07:02:00,44.1,43.5,29.62,NW,311,6.3,6.3,98,0.00,,OVC003,0.12,VWS V14.00,2013-04-01 11:02:00,
2013-04-01 07:09:00,44.1,43.5,29.65,SSW,210,5.8,8.1,98,0.00,,OVC003,0.12,VWS V14.00,2013-04-01 11:09:00,
2013-04-01 07:16:00,44.2,43.7,29.65,NNW,348,5.8,8.3,98,0.00,,OVC005,0.12,VWS V14.00,2013-04-01 11:16:00,
2013-04-01 07:24:00,44.2,43.7,29.65,WSW,244,8.3,8.3,98,0.00,,OVC005,0.12,VWS V14.00,2013-04-01 11:24:00,
2013-04-01 07:30:00,44.2,43.7,29.65,WNW,294,4.9,8.3,98,0.00,,OVC005,0.12,VWS V14.00,2013-04-01 11:30:00,
2013-04-01 07:36:00,44.2,43.4,29.65,NW,304,8.7,10.5,97,0.00,,OVC005,0.12,VWS V14.00,2013-04-01 11:36:00,
2013-04-01 07:43:00,44.2,43.2,29.65,NNW,345,6.3,13.2,96,0.00,,OVC005,0.12,VWS V14.00,2013-04-01 11:43:00,
2013-04-01 07:50:00,44.2,43.2,29.65,North,0,2.7,13.2,96,0.00,,OVC005,0.12,VWS V14.00,2013-04-01 11:50:00,
2013-04-01 07:57:00,44.2,42.3,29.65,WSW,243,3.1,9.2,93,0.00,,OVC005,0.12,VWS V14.00,2013-04-01 11:57:00,
2013-04-01 08:04:00,44.4,42.2,29.65,NW,321,4.0,10.5,92,0.00,,OVC005,0.12,VWS V14.00,2013-04-01 12:04:00,
2013-04-01 08:10:00,44.6,41.8,29.65,West,265,6.3,10.5,90,0.00,,OVC005,0.12,VWS V14.00,2013-04-01 12:10:00,
2013-04-01 08:15:00,44.8,41.7,29.65,West,265,5.8,8.3,89,0.00,,OVC005,0.12,VWS V14.00,2013-04-01 12:15:00,
2013-04-01 08:22:00,44.8,41.2,29.65,NW,325,0.0,8.7,87,0.00,,OVC005,0.12,VWS V14.00,2013-04-01 12:22:00,
2013-04-01 08:29:00,45.0,40.7,29.65,NNW,329,3.6,8.7,85,0.00,,OVC005,0.12,VWS V14.00,2013-04-01 12:29:00,
2013-04-01 08:36:00,45.1,40.0,29.65,North,353,3.6,12.8,82,0.00,,OVC005,0.12,VWS V14.00,2013-04-01 12:36:00,
2013-04-01 08:44:00,45.3,39.8,29.65,NNW,339,5.4,10.5,81,0.00,,OVC005,0.12,VWS V14.00,2013-04-01 12:44:00,
2013-04-01 08:50:00,45.5,39.4,29.65,NW,306,2.7,10.5,79,0.00,,OVC005,0.12,VWS V14.00,2013-04-01 12:50:00,
2013-04-01 08:55:00,45.9,39.4,29.65,WNW,290,12.3,12.3,78,0.00,,OVC005,0.12,VWS V14.00,2013-04-01 12:55:00,
2013-04-01 09:02:00,45.9,38.7,29.65,WNW,301,8.3,8.7,76,0.00,,OVC007,0.12,VWS V14.00,2013-04-01 13:02:00,
2013-04-01 09:09:00,46.0,37.9,29.65,NNW,333,4.0,15.0,73,0.00,,OVC007,0.12,VWS V14.00,2013-04-01 13:09:00,
2013-04-01 09:17:00,46.4,38.2,29.65,WSW,258,3.6,8.3,73,0.00,,OVC007,0.12,VWS V14.00,2013-04-01 13:17:00,
2013-04-01 09:24:00,46.6,37.7,29.65,WSW,238,3.1,10.1,71,0.00,,OVC007,0.12,VWS V14.00,2013-04-01 13:24:00,
2013-04-01 09:30:00,47.1,38.2,29.65,West,262,5.4,10.1,71,0.00,,OVC007,0.12,VWS V14.00,2013-04-01 13:30:00,
2013-04-01 09:36:00,47.3,37.3,29.65,WSW,258,3.6,7.2,68,0.00,,BKN011,0.12,VWS V14.00,2013-04-01 13:36:00,
2013-04-01 09:43:00,48.0,37.6,29.65,SW,222,8.3,8.3,67,0.00,,BKN011,0.12,VWS V14.00,2013-04-01 13:43:00,
2013-04-01 09:50:00,48.6,35.3,29.65,SW,222,11.0,13.2,60,0.00,,BKN011,0.12,VWS V14.00,2013-04-01 13:50:00,
2013-04-01 09:57:00,50.0,34.9,29.65,WSW,244,8.7,11.9,56,0.00,,BKN011,0.12,VWS V14.00,2013-04-01 13:57:00,
2013-04-01 10:06:00,52.7,35.1,29.65,SW,216,8.7,15.0,51,0.00,,BKN013,0.12,VWS V14.00,2013-04-01 14:06:00,
2013-04-01 10:13:00,51.1,33.6,29.65,WSW,253,8.1,11.4,51,0.00,,SCT015,0.12,VWS V14.00,2013-04-01 14:13:00,
2013-04-01 10:20:00,51.6,35.1,29.65,SSW,197,8.7,13.6,53,0.00,,SCT015,0.12,VWS V14.00,2013-04-01 14:20:00,
2013-04-01 10:26:00,52.3,33.8,29.65,NW,325,4.0,10.5,49,0.00,,SCT015,0.12,VWS V14.00,2013-04-01 14:26:00,
2013-04-01 10:33:00,53.8,35.1,29.65,West,281,2.2,9.2,49,0.00,,SCT015,0.12,VWS V14.00,2013-04-01 14:33:00,
2013-04-01 10:40:00,55.6,33.5,29.65,WSW,238,4.9,10.5,43,0.00,,SCT015,0.12,VWS V14.00,2013-04-01 14:40:00,
2013-04-01 10:47:00,55.0,33.0,29.65,WNW,286,8.3,15.4,43,0.00,,SCT015,0.12,VWS V14.00,2013-04-01 14:47:00,
2013-04-01 10:54:00,54.3,32.3,29.65,SW,220,6.3,11.0,43,0.00,,SCT015,0.12,VWS V14.00,2013-04-01 14:54:00,
2013-04-01 11:00:00,52.5,32.9,29.65,WSW,257,8.7,13.2,47,0.00,,SCT015,0.12,VWS V14.00,2013-04-01 15:00:00,
2013-04-01 11:06:00,52.9,32.1,29.65,WNW,288,6.3,12.3,45,0.00,,CLR,0.12,VWS V14.00,2013-04-01 15:06:00,
2013-04-01 11:13:00,53.6,31.7,29.65,WNW,293,7.6,8.1,43,0.00,,CLR,0.12,VWS V14.00,2013-04-01 15:13:00,
2013-04-01 11:20:00,53.8,32.4,29.62,West,260,4.0,11.0,44,0.00,,CLR,0.12,VWS V14.00,2013-04-01 15:20:00,
2013-04-01 11:27:00,53.8,31.8,29.62,West,260,8.1,15.4,43,0.00,,CLR,0.12,VWS V14.00,2013-04-01 15:27:00,
2013-04-01 11:34:00,54.3,32.3,29.62,WNW,295,2.2,10.5,43,0.00,,CLR,0.12,VWS V14.00,2013-04-01 15:34:00,
2013-04-01 11:40:00,54.9,31.6,29.62,SSW,195,6.3,10.5,41,0.00,,CLR,0.12,VWS V14.00,2013-04-01 15:40:00,
2013-04-01 11:46:00,54.9,31.6,29.62,SSW,211,4.9,12.8,41,0.00,,CLR,0.12,VWS V14.00,2013-04-01 15:46:00,
2013-04-01 11:53:00,55.6,31.7,29.62,West,276,6.3,10.5,40,0.00,,CLR,0.12,VWS V14.00,2013-04-01 15:53:00,
2013-04-01 12:00:00,56.1,32.2,29.62,West,273,13.2,13.2,40,0.00,,CLR,0.12,VWS V14.00,2013-04-01 16:00:00,
2013-04-01 12:07:00,55.9,32.0,29.62,SW,216,8.3,13.2,40,0.00,,CLR,0.12,VWS V14.00,2013-04-01 16:07:00,
2013-04-01 12:14:00,56.5,33.1,29.62,SSE,147,8.1,12.8,41,0.00,,CLR,0.12,VWS V14.00,2013-04-01 16:14:00,
2013-04-01 12:20:00,56.7,32.6,29.62,South,175,6.3,12.8,40,0.00,,CLR,0.12,VWS V14.00,2013-04-01 16:20:00,
2013-04-01 12:26:00,56.5,33.1,29.62,SSE,160,7.2,14.5,41,0.00,,CLR,0.12,VWS V14.00,2013-04-01 16:26:00,
2013-04-01 12:35:00,56.3,32.9,29.62,SW,234,13.2,13.2,41,0.00,,CLR,0.12,VWS V14.00,2013-04-01 16:35:00,
2013-04-01 12:42:00,56.3,32.9,29.62,SSW,213,12.8,12.8,41,0.00,,CLR,0.12,VWS V14.00,2013-04-01 16:42:00,
2013-04-01 12:49:00,56.7,32.6,29.62,SW,236,5.4,14.5,40,0.00,,CLR,0.12,VWS V14.00,2013-04-01 16:49:00,
2013-04-01 12:57:00,56.7,32.6,29.62,SW,231,5.4,15.0,40,0.00,,CLR,0.12,VWS V14.00,2013-04-01 16:57:00,
2013-04-01 13:04:00,56.8,32.8,29.59,SSE,159,6.3,13.2,40,0.00,,CLR,0.12,VWS V14.00,2013-04-01 17:04:00,
2013-04-01 13:10:00,57.2,33.1,29.59,SSW,199,5.4,13.2,40,0.00,,CLR,0.12,VWS V14.00,2013-04-01 17:10:00,
2013-04-01 13:16:00,57.6,33.4,29.59,WSW,248,8.3,14.1,40,0.00,,CLR,0.12,VWS V14.00,2013-04-01 17:16:00,
2013-04-01 13:23:00,57.7,33.6,29.59,SSW,213,10.1,12.8,40,0.00,,CLR,0.12,VWS V14.00,2013-04-01 17:23:00,
2013-04-01 13:30:00,57.6,30.8,29.59,South,190,10.1,15.4,36,0.00,,CLR,0.12,VWS V14.00,2013-04-01 17:30:00,
2013-04-01 13:37:00,58.3,32.2,29.59,South,172,9.6,15.9,37,0.00,,CLR,0.12,VWS V14.00,2013-04-01 17:37:00,
2013-04-01 13:44:00,59.2,31.6,29.59,SSW,204,4.0,12.3,35,0.00,,CLR,0.12,VWS V14.00,2013-04-01 17:44:00,
2013-04-01 13:50:00,58.6,33.1,29.59,South,177,8.3,12.3,38,0.00,,CLR,0.12,VWS V14.00,2013-04-01 17:50:00,
2013-04-01 13:56:00,58.1,32.7,29.59,SW,225,4.0,8.3,38,0.00,,CLR,0.12,VWS V14.00,2013-04-01 17:56:00,
2013-04-01 14:03:00,58.1,33.3,29.59,South,188,5.8,7.6,39,0.00,,OVC070,0.12,VWS V14.00,2013-04-01 18:03:00,
2013-04-01 14:10:00,57.4,33.3,29.59,SW,226,5.8,8.7,40,0.00,,OVC070,0.12,VWS V14.00,2013-04-01 18:10:00,
2013-04-01 14:17:00,56.8,32.8,29.59,SSW,192,5.4,8.3,40,0.00,,OVC070,0.12,VWS V14.00,2013-04-01 18:17:00,
2013-04-01 14:24:00,55.9,32.6,29.59,SSW,211,5.4,8.3,41,0.00,,OVC080,0.12,VWS V14.00,2013-04-01 18:24:00,
2013-04-01 14:30:00,55.8,33.6,29.59,SW,228,0.0,10.1,43,0.00,,OVC080,0.12,VWS V14.00,2013-04-01 18:30:00,
2013-04-01 14:36:00,55.9,33.8,29.56,SSE,158,5.8,8.1,43,0.00,,OVC080,0.12,VWS V14.00,2013-04-01 18:36:00,
2013-04-01 14:43:00,56.3,33.5,29.56,SW,221,5.8,8.3,42,0.00,,OVC075,0.12,VWS V14.00,2013-04-01 18:43:00,
2013-04-01 14:50:00,57.2,33.7,29.56,SSE,165,3.6,8.3,41,0.00,,OVC075,0.12,VWS V14.00,2013-04-01 18:50:00,
2013-04-01 14:57:00,57.2,33.1,29.56,SW,218,5.8,6.3,40,0.00,,OVC075,0.12,VWS V14.00,2013-04-01 18:57:00,
2013-04-01 15:04:00,57.7,33.6,29.56,SW,217,3.1,5.8,40,0.00,,OVC060,0.12,VWS V14.00,2013-04-01 19:04:00,
2013-04-01 15:10:00,57.6,32.8,29.56,SSW,201,3.1,7.2,39,0.00,,OVC060,0.12,VWS V14.00,2013-04-01 19:10:00,
2013-04-01 15:16:00,57.2,33.1,29.56,SW,219,3.1,5.4,40,0.00,,OVC060,0.12,VWS V14.00,2013-04-01 19:16:00,
2013-04-01 15:23:00,57.0,33.6,29.53,SSE,155,5.8,8.7,41,0.00,,OVC060,0.12,VWS V14.00,2013-04-01 19:23:00,
2013-04-01 15:30:00,57.0,33.6,29.53,SW,216,8.1,8.7,41,0.00,,OVC060,0.12,VWS V14.00,2013-04-01 19:30:00,
2013-04-01 15:37:00,58.1,34.5,29.53,SSW,201,4.5,12.8,41,0.00,,OVC060,0.12,VWS V14.00,2013-04-01 19:37:00,
2013-04-01 15:44:00,59.2,34.3,29.53,SW,226,8.7,11.0,39,0.00,,OVC060,0.12,VWS V14.00,2013-04-01 19:44:00,
2013-04-01 15:50:00,58.8,33.9,29.53,SW,214,8.7,13.2,39,0.00,,OVC060,0.12,VWS V14.00,2013-04-01 19:50:00,
2013-04-01 15:58:00,57.7,33.6,29.53,SW,231,5.4,11.0,40,0.00,,OVC060,0.12,VWS V14.00,2013-04-01 19:58:00,
2013-04-01 16:06:00,56.7,33.2,29.53,South,175,5.8,15.0,41,0.00,,OVC060,0.12,VWS V14.00,2013-04-01 20:06:00,
2013-04-01 16:13:00,55.9,36.5,29.53,South,183,8.3,13.2,48,0.00,,OVC060,0.12,VWS V14.00,2013-04-01 20:13:00,
2013-04-01 16:20:00,53.4,37.2,29.53,SSW,205,8.1,17.4,54,0.04,,OVC060,0.16,VWS V14.00,2013-04-01 20:20:00,
2013-04-01 16:29:00,54.3,40.3,29.53,South,183,5.4,11.0,59,0.04,,OVC060,0.16,VWS V14.00,2013-04-01 20:29:00,
2013-04-01 16:36:00,55.0,41.0,29.53,SW,225,5.4,8.1,59,0.04,,OVC060,0.16,VWS V14.00,2013-04-01 20:36:00,
2013-04-01 16:44:00,54.7,37.9,29.53,WSW,239,9.6,11.0,53,0.04,,-RA,0.16,VWS V14.00,2013-04-01 20:44:00,
2013-04-01 16:50:00,54.1,34.4,29.56,NNW,331,4.0,13.2,47,0.04,,-RA,0.16,VWS V14.00,2013-04-01 20:50:00,
2013-04-01 16:55:00,53.2,33.5,29.56,West,260,4.9,14.1,47,0.04,,-RA,0.16,VWS V14.00,2013-04-01 20:55:00,
2013-04-01 17:02:00,52.7,33.6,29.56,WSW,252,5.4,7.6,48,0.04,,BKN065,0.16,VWS V14.00,2013-04-01 21:02:00,
2013-04-01 17:09:00,52.0,31.9,29.56,North,357,7.6,10.1,46,0.04,,BKN065,0.16,VWS V14.00,2013-04-01 21:09:00,
2013-04-01 17:16:00,51.4,30.8,29.56,North,350,6.3,15.9,45,0.04,,BKN065,0.16,VWS V14.00,2013-04-01 21:16:00,
2013-04-01 17:24:00,50.9,30.9,29.56,WSW,257,12.8,17.4,46,0.00,,BKN065,0.16,VWS V14.00,2013-04-01 21:24:00,
2013-04-01 17:30:00,49.8,32.9,29.56,NW,304,10.5,17.4,52,0.00,,BKN065,0.16,VWS V14.00,2013-04-01 21:30:00,
2013-04-01 17:36:00,48.7,33.3,29.59,WSW,248,3.1,15.4,55,0.00,,BKN065,0.16,VWS V14.00,2013-04-01 21:36:00,
2013-04-01 17:43:00,48.2,33.7,29.59,SW,225,6.3,8.7,57,0.00,,BKN065,0.16,VWS V14.00,2013-04-01 21:43:00,
2013-04-01 17:50:00,47.7,34.0,29.62,SW,219,8.1,8.7,59,0.00,,BKN065,0.16,VWS V14.00,2013-04-01 21:50:00,
2013-04-01 17:57:00,47.5,34.3,29.62,WSW,243,4.9,8.3,60,0.00,,BKN065,0.16,VWS V14.00,2013-04-01 21:57:00,
2013-04-01 18:04:00,47.3,33.3,29.62,WSW,249,4.0,8.3,58,0.00,,OVC070,0.16,VWS V14.00,2013-04-01 22:04:00,
2013-04-01 18:10:00,47.5,33.9,29.62,SW,229,7.6,8.7,59,0.00,,OVC070,0.16,VWS V14.00,2013-04-01 22:10:00,
2013-04-01 18:16:00,48.0,34.0,29.62,SW,215,6.7,10.1,58,0.00,,OVC070,0.16,VWS V14.00,2013-04-01 22:16:00,
2013-04-01 18:23:00,47.8,32.5,29.62,SW,222,5.8,8.7,55,0.00,,OVC070,0.16,VWS V14.00,2013-04-01 22:23:00,
2013-04-01 18:30:00,47.5,31.2,29.62,SSW,196,8.3,8.7,53,0.00,,OVC070,0.16,VWS V14.00,2013-04-01 22:30:00,
2013-04-01 18:37:00,47.7,30.0,29.65,SW,227,7.6,8.7,50,0.00,,OVC070,0.16,VWS V14.00,2013-04-01 22:37:00,
2013-04-01 18:44:00,47.1,25.2,29.65,SW,228,17.0,17.0,42,0.00,,OVC070,0.16,VWS V14.00,2013-04-01 22:44:00,
2013-04-01 18:50:00,46.9,23.3,29.65,NNW,340,5.8,17.4,39,0.00,,OVC070,0.16,VWS V14.00,2013-04-01 22:50:00,
2013-04-01 18:58:00,46.4,21.6,29.65,SSE,149,2.7,19.7,37,0.00,,OVC070,0.16,VWS V14.00,2013-04-01 22:58:00,
2013-04-01 19:05:00,46.0,21.2,29.65,WSW,247,7.6,11.9,37,0.00,,BKN055,0.16,VWS V14.00,2013-04-01 23:05:00,
2013-04-01 19:12:00,45.7,21.5,29.65,NNW,342,8.3,8.3,38,0.00,,BKN055,0.16,VWS V14.00,2013-04-01 23:12:00,
2013-04-01 19:19:00,45.3,21.2,29.65,WNW,293,2.7,10.1,38,0.00,,BKN055,0.16,VWS V14.00,2013-04-01 23:19:00,
2013-04-01 19:29:00,45.1,21.7,29.65,NW,325,3.6,8.1,39,0.00,,BKN055,0.16,VWS V14.00,2013-04-01 23:29:00,
2013-04-01 19:38:00,44.6,20.0,29.68,NNW,332,7.2,7.2,37,0.00,,BKN055,0.16,VWS V14.00,2013-04-01 23:38:00,
2013-04-01 19:45:00,44.6,19.3,29.68,West,260,11.0,16.3,36,0.00,,BKN055,0.16,VWS V14.00,2013-04-01 23:45:00,
2013-04-01 19:52:00,44.1,16.8,29.68,WSW,258,10.1,19.7,33,0.00,,BKN055,0.16,VWS V14.00,2013-04-01 23:52:00,
2013-04-01 20:00:00,43.5,16.3,29.68,West,276,9.2,19.7,33,0.00,,BKN055,0.16,VWS V14.00,2013-04-02 00:00:00,
2013-04-01 20:07:00,43.2,16.0,29.68,West,272,9.6,16.8,33,0.00,,SCT110,0.16,VWS V14.00,2013-04-02 00:07:00,
2013-04-01 20:14:00,43.0,16.5,29.68,West,272,5.8,10.5,34,0.00,,SCT110,0.16,VWS V14.00,2013-04-02 00:14:00,
2013-04-01 20:20:00,42.8,16.4,29.68,WNW,293,8.1,13.2,34,0.00,,SCT110,0.16,VWS V14.00,2013-04-02 00:20:00,
2013-04-01 20:26:00,42.6,16.2,29.68,West,273,3.1,8.1,34,0.00,,SCT110,0.16,VWS V14.00,2013-04-02 00:26:00,
2013-04-01 20:33:00,42.4,16.7,29.68,NNW,328,0.0,5.4,35,0.00,,SCT110,0.16,VWS V14.00,2013-04-02 00:33:00,
2013-04-01 20:40:00,42.1,17.1,29.71,North,357,5.8,12.8,36,0.00,,SCT110,0.16,VWS V14.00,2013-04-02 00:40:00,
2013-04-01 20:47:00,41.9,16.9,29.71,WNW,284,3.1,14.5,36,0.00,,SCT110,0.16,VWS V14.00,2013-04-02 00:47:00,
2013-04-01 20:54:00,41.7,16.1,29.71,NNW,329,5.4,12.8,35,0.00,,SCT110,0.16,VWS V14.00,2013-04-02 00:54:00,
2013-04-01 21:00:00,41.4,15.8,29.71,WSW,239,11.9,15.0,35,0.00,,SCT110,0.16,VWS V14.00,2013-04-02 01:00:00,
2013-04-01 21:06:00,41.2,15.0,29.71,NNW,335,8.1,16.8,34,0.00,,FEW120,0.16,VWS V14.00,2013-04-02 01:06:00,
2013-04-01 21:13:00,41.0,14.8,29.71,WSW,240,10.5,13.2,34,0.00,,FEW120,0.16,VWS V14.00,2013-04-02 01:13:00,
2013-04-01 21:20:00,40.6,13.8,29.74,NNE,21,5.4,15.9,33,0.00,,FEW120,0.16,VWS V14.00,2013-04-02 01:20:00,
2013-04-01 21:27:00,40.3,13.5,29.74,NNW,327,5.4,11.0,33,0.00,,FEW120,0.16,VWS V14.00,2013-04-02 01:27:00,
2013-04-01 21:34:00,39.9,13.2,29.74,NW,323,5.4,12.8,33,0.00,,FEW120,0.16,VWS V14.00,2013-04-02 01:34:00,
2013-04-01 21:40:00,39.6,11.4,29.74,SW,231,8.7,12.8,31,0.00,,FEW120,0.16,VWS V14.00,2013-04-02 01:40:00,
2013-04-01 21:46:00,39.4,9.0,29.74,WNW,286,7.6,12.8,28,0.00,,FEW120,0.16,VWS V14.00,2013-04-02 01:46:00,
2013-04-01 21:53:00,39.0,9.5,29.74,WSW,241,13.2,14.5,29,0.00,,FEW120,0.16,VWS V14.00,2013-04-02 01:53:00,
2013-04-01 22:00:00,38.8,9.3,29.74,SW,215,5.4,20.6,29,0.00,,FEW120,0.16,VWS V14.00,2013-04-02 02:00:00,
2013-04-01 22:07:00,38.7,6.7,29.74,WNW,288,12.3,15.9,26,0.00,,CLR,0.16,VWS V14.00,2013-04-02 02:07:00,
2013-04-01 22:14:00,38.3,6.4,29.74,NW,319,6.7,11.9,26,0.00,,CLR,0.16,VWS V14.00,2013-04-02 02:14:00,
2013-04-01 22:20:00,38.1,6.3,29.77,West,268,15.9,15.9,26,0.00,,CLR,0.16,VWS V14.00,2013-04-02 02:20:00,
2013-04-01 22:26:00,37.9,6.1,29.77,West,276,11.0,15.9,26,0.00,,CLR,0.16,VWS V14.00,2013-04-02 02:26:00,
2013-04-01 22:33:00,37.8,6.0,29.77,West,272,6.3,7.6,26,0.00,,CLR,0.16,VWS V14.00,2013-04-02 02:33:00,
2013-04-01 22:40:00,37.4,5.7,29.77,North,9,8.3,8.7,26,0.00,,CLR,0.16,VWS V14.00,2013-04-02 02:40:00,
2013-04-01 22:47:00,37.2,6.3,29.77,WSW,251,7.6,13.2,27,0.00,,CLR,0.16,VWS V14.00,2013-04-02 02:47:00,
2013-04-01 22:54:00,37.0,6.2,29.77,NNW,343,12.8,19.7,27,0.00,,CLR,0.16,VWS V14.00,2013-04-02 02:54:00,
2013-04-01 23:00:00,36.7,5.9,29.77,NW,316,12.8,19.7,27,0.00,,CLR,0.16,VWS V14.00,2013-04-02 03:00:00,
2013-04-01 23:06:00,36.3,5.6,29.77,NW,317,7.6,12.8,27,0.00,,CLR,0.16,VWS V14.00,2013-04-02 03:06:00,
2013-04-01 23:13:00,36.0,5.2,29.77,North,353,8.3,10.5,27,0.00,,CLR,0.16,VWS V14.00,2013-04-02 03:13:00,
2013-04-01 23:20:00,35.8,5.1,29.80,NW,315,8.3,12.8,27,0.00,,CLR,0.16,VWS V14.00,2013-04-02 03:20:00,
2013-04-01 23:27:00,35.6,4.9,29.80,WNW,285,3.6,11.0,27,0.00,,CLR,0.16,VWS V14.00,2013-04-02 03:27:00,
2013-04-01 23:34:00,35.4,4.8,29.77,NNW,333,7.2,8.1,27,0.00,,CLR,0.16,VWS V14.00,2013-04-02 03:34:00,
2013-04-01 23:40:00,35.4,4.8,29.77,NNW,341,7.6,8.7,27,0.00,,CLR,0.16,VWS V14.00,2013-04-02 03:40:00,
2013-04-01 23:46:00,35.1,4.5,29.77,WNW,283,4.0,8.7,27,0.00,,CLR,0.16,VWS V14.00,2013-04-02 03:46:00,
2013-04-01 23:53:00,34.9,4.3,29.80,WNW,294,3.1,6.3,27,0.00,,CLR,0.16,VWS V14.00,2013-04-02 03:53:00,